Dewpoint
66 70 70 69 69 70 72 73 73 74 74 74 74 74 74 74 74 74 74 74 74 74 74 74 74 74 74 74 74 74 74 74 73 73 74 74 74 73 72 71 73 68 73
66 70 71 70 70 70 73 74 73 74 74 74 74 74 74 74 74 74 74 74 74 74 74 74 74 74 74 74 74 74 74 74 74 74 74 74 74 73 73 73 74 70 72
65 67 68 72 72 71 73 74 73 73 73 74 74 74 74 74 74 74 74 74 74 74 74 74 74 74 74 74 74 74 74 74 74 73 73 68 71 74 73 73 73 73 73
62 65 68 73 72 71 74 74 74 74 73 74 74 74 74 74 74 74 74 74 74 73 73 73 73 73 74 74 74 74 74 74 72 71 65 66 68 73 74 74 74 73 73
64 65 69 73 74 73 73 74 74 74 74 74 74 74 74 74 74 73 74 74 74 73 73 74 74 73 74 74 74 74 74 73 71 72 69 71 65 71 73 73 74 73 73
64 64 71 74 74 74 73 74 74 74 74 74 73 74 74 74 74 73 73 74 73 73 74 74 74 74 73 74 74 73 73 72 71 65 65 67 67 71 71 71 72 71 71
63 64 68 74 74 73 74 74 74 74 74 74 74 74 74 74 73 74 73 73 73 73 73 73 74 73 73 72 72 72 72 69 66 66 65 65 67 70 70 70 70 70 70
61 63 66 73 74 74 74 74 74 74 74 74 74 74 74 73 74 74 73 72 73 73 73 73 74 74 73 73 71 70 69 69 66 66 67 64 71 70 69 69 69 69 69
61 63 64 66 72 74 74 74 74 74 74 73 74 74 74 73 73 73 72 71 71 72 72 72 73 73 73 73 72 70 69 69 62 64 62 62 70 68 68 69 69 69 70
60 62 64 66 68 70 70 74 74 74 74 73 73 74 73 73 73 72 74 72 70 70 71 71 72 73 72 73 73 72 71 70 57 59 61 62 69 68 68 69 70 71 72
62 64 64 66 70 72 73 73 73 73 74 74 73 73 71 65 66 68 73 73 72 71 70 71 72 72 71 72 72 72 73 62 58 58 58 68 69 69 69 70 71 72 72
62 63 65 66 67 69 70 73 73 69 68 68 68 70 66 68 70 68 71 72 72 71 70 70 70 69 70 64 66 72 63 63 61 59 60 69 70 71 71 71 71 72 73
62 64 65 68 69 68 70 68 67 66 66 68 71 69 70 68 69 67 67 65 67 69 64 65 66 65 67 65 64 61 60 62 60 59 63 68 70 71 72 73 73 73 74
62 64 64 67 69 68 67 65 65 65 65 64 68 71 70 66 68 70 65 67 69 66 69 69 66 70 69 69 65 63 59 58 58 59 63 68 70 71 71 72 73 74 74
61 64 65 68 71 71 69 65 64 65 63 65 67 70 68 66 67 66 69 68 70 69 67 68 69 68 68 64 63 63 60 61 60 60 62 67 69 71 72 71 72 73 74
62 64 66 68 70 70 70 71 68 66 66 65 66 69 70 67 69 69 69 67 69 70 69 69 70 67 64 61 63 63 61 62 63 64 61 64 67 69 71 72 73 74 74
62 64 66 67 68 70 71 70 68 67 64 65 66 71 71 72 72 74 69 69 69 72 74 71 69 68 62 59 64 64 63 63 63 64 64 64 65 70 70 71 73 73 74
62 65 66 63 66 69 70 70 66 67 67 66 67 68 71 72 73 73 69 69 72 73 71 68 65 63 62 60 63 62 63 64 66 67 67 67 66 64 70 72 72 74 75
64 67 66 67 67 69 72 69 69 71 68 67 68 68 73 71 72 72 70 70 74 71 69 65 65 64 63 61 60 62 64 65 65 62 67 68 68 68 68 73 74 74 75
65 68 69 68 69 71 70 71 68 67 67 67 67 68 71 71 73 73 69 72 72 69 68 68 70 69 67 65 58 60 64 64 65 65 64 63 67 68 67 71 70 71 73
64 66 69 70 72 73 69 66 66 65 66 66 67 69 71 72 73 74 70 71 72 70 74 73 70 71 67 70 65 63 65 65 64 64 64 64 66 66 67 68 69 67 66
64 66 68 70 71 73 69 69 67 68 66 66 68 71 71 71 73 73 74 72 73 69 74 75 74 67 68 70 66 62 59 61 61 62 65 65 67 66 66 67 67 69 69
64 66 68 71 72 74 72 70 71 72 73 69 69 68 70 71 71 74 74 73 74 72 68 73 73 73 65 69 72 67 60 58 61 63 65 65 68 65 65 66 65 67 69
63 65 68 71 72 71 72 71 72 66 64 66 68 68 70 72 72 72 73 74 75 71 73 72 71 73 74 67 68 67 70 69 59 57 62 63 64 63 64 65 64 65 68
63 64 66 70 72 72 73 75 69 69 65 66 66 71 73 73 73 72 73 73 74 70 74 73 73 76 71 69 66 67 69 65 67 60 56 58 62 63 66 67 66 67 70
63 64 66 70 72 72 73 71 71 71 69 66 68 68 67 67 68 72 72 74 74 73 73 72 74 73 73 73 69 68 65 62 62 61 59 62 60 64 66 67 69 67 67
Lifted_Index
-1 -1 -2 -2 -2 -2 -3 -3 -4 -4 -5 -5 -5 -5 -5 -5 -5 -5 -4 -4 -4 -4 -4 -4 -4 -4 -4 -4 -4 -4 -4 -4 -4 -4 -4 -4 -4 -4 -3 -3 -4 -3 -3
-1 -2 -2 -2 -2 -3 -3 -4 -4 -4 -5 -5 -5 -5 -5 -5 -5 -5 -4 -4 -4 -4 -4 -4 -4 -4 -4 -4 -5 -5 -4 -4 -4 -4 -4 -4 -4 -4 -4 -4 -4 -3 -3
-1 -2 -2 -3 -3 -3 -4 -5 -5 -5 -5 -5 -5 -5 -5 -5 -5 -5 -5 -5 -4 -4 -4 -4 -4 -4 -5 -5 -5 -5 -4 -4 -4 -4 -4 -3 -4 -4 -4 -4 -4 -4 -4
-2 -2 -3 -4 -4 -4 -5 -5 -5 -5 -5 -5 -5 -5 -5 -5 -5 -5 -5 -5 -5 -4 -4 -4 -4 -5 -5 -5 -5 -4 -4 -4 -4 -4 -3 -3 -3 -4 -4 -4 -5 -5 -5
-3 -3 -4 -4 -5 -5 -5 -5 -5 -5 -5 -6 -6 -6 -6 -5 -5 -5 -5 -5 -5 -5 -4 -5 -5 -5 -5 -5 -4 -4 -4 -4 -4 -3 -3 -3 -3 -3 -4 -4 -5 -5 -5
-3 -4 -4 -5 -5 -6 -6 -6 -6 -6 -6 -6 -6 -6 -6 -6 -6 -5 -5 -5 -5 -5 -5 -5 -5 -5 -5 -4 -4 -4 -4 -3 -3 -2 -2 -2 -2 -3 -3 -4 -4 -4 -4
-3 -4 -4 -5 -6 -6 -6 -6 -6 -6 -6 -6 -6 -6 -6 -6 -6 -6 -5 -5 -5 -5 -5 -5 -5 -5 -4 -4 -3 -3 -3 -2 -2 -2 -2 -2 -2 -2 -3 -3 -3 -4 -4
-3 -3 -4 -5 -6 -6 -6 -6 -6 -6 -7 -7 -7 -7 -6 -6 -6 -6 -5 -5 -5 -5 -5 -5 -5 -5 -4 -4 -3 -2 -2 -2 -2 -2 -2 -2 -2 -2 -2 -2 -3 -4 -4
-3 -3 -4 -5 -5 -6 -6 -6 -6 -6 -6 -6 -7 -7 -6 -6 -6 -5 -5 -4 -4 -4 -5 -5 -5 -5 -5 -4 -3 -3 -2 -2 -1 -1 -1 -1 -2 -2 -2 -3 -3 -4 -4
-3 -3 -4 -4 -5 -6 -6 -6 -6 -6 -6 -6 -6 -6 -6 -6 -5 -5 -5 -5 -4 -4 -4 -4 -5 -5 -4 -4 -4 -4 -3 -2 -0 -0 -0 -1 -2 -2 -2 -3 -4 -4 -5
-3 -4 -4 -5 -5 -5 -6 -6 -6 -6 -6 -6 -6 -6 -5 -5 -5 -5 -5 -5 -5 -4 -4 -4 -4 -4 -4 -4 -4 -4 -4 -2 -1 -0 -0 -1 -2 -3 -3 -4 -4 -5 -5
-4 -4 -4 -5 -5 -5 -5 -6 -5 -5 -5 -5 -5 -5 -5 -5 -5 -5 -5 -5 -5 -4 -4 -4 -4 -3 -3 -3 -4 -4 -3 -2 -1 -1 -1 -2 -3 -4 -4 -5 -5 -5 -6
-3 -4 -4 -5 -5 -5 -5 -5 -5 -5 -5 -5 -5 -6 -6 -5 -5 -5 -5 -5 -5 -4 -4 -3 -3 -4 -4 -4 -3 -3 -2 -2 -2 -1 -2 -2 -4 -4 -5 -5 -5 -6 -6
-3 -3 -4 -4 -5 -5 -4 -4 -4 -4 -4 -5 -5 -6 -6 -5 -5 -5 -4 -4 -5 -4 -4 -4 -4 -5 -5 -4 -3 -3 -2 -2 -2 -2 -2 -3 -4 -5 -5 -5 -6 -6 -7
-2 -3 -4 -4 -5 -5 -4 -4 -4 -4 -4 -4 -5 -6 -5 -4 -4 -4 -5 -5 -5 -5 -5 -5 -5 -5 -5 -4 -3 -3 -3 -2 -3 -3 -3 -3 -4 -4 -5 -5 -6 -6 -7
-2 -3 -3 -4 -4 -4 -4 -4 -4 -4 -4 -4 -5 -5 -5 -5 -5 -5 -5 -5 -6 -6 -6 -6 -5 -5 -4 -3 -3 -3 -3 -3 -3 -4 -4 -4 -4 -4 -5 -5 -6 -6 -7
-2 -2 -3 -3 -4 -4 -4 -4 -4 -4 -4 -4 -5 -5 -6 -6 -6 -6 -6 -6 -6 -6 -6 -6 -5 -5 -4 -3 -3 -4 -4 -4 -4 -5 -5 -5 -5 -5 -5 -5 -6 -6 -7
-2 -2 -2 -2 -3 -4 -4 -4 -4 -4 -4 -4 -4 -5 -6 -6 -6 -6 -5 -6 -6 -7 -6 -6 -5 -4 -4 -3 -4 -4 -5 -5 -5 -6 -6 -6 -6 -6 -6 -6 -6 -7 -7
-2 -2 -2 -2 -3 -3 -4 -4 -4 -4 -4 -4 -4 -5 -6 -6 -6 -6 -5 -6 -6 -6 -6 -5 -5 -5 -4 -4 -4 -4 -5 -6 -6 -6 -7 -7 -7 -7 -7 -7 -7 -7 -7
-2 -3 -3 -3 -3 -3 -4 -4 -4 -4 -4 -4 -4 -4 -5 -6 -6 -6 -5 -5 -6 -6 -6 -6 -6 -5 -5 -5 -4 -5 -5 -6 -6 -6 -6 -7 -7 -7 -8 -8 -8 -7 -6
-2 -2 -3 -3 -3 -4 -4 -3 -3 -3 -3 -3 -4 -4 -5 -5 -6 -6 -5 -5 -6 -6 -6 -7 -6 -6 -6 -6 -6 -5 -5 -6 -6 -6 -6 -7 -7 -7 -7 -7 -7 -6 -5
-2 -2 -2 -3 -3 -4 -4 -3 -3 -3 -3 -3 -4 -4 -5 -5 -6 -6 -6 -6 -6 -6 -6 -7 -7 -6 -6 -6 -6 -6 -5 -5 -6 -6 -6 -7 -7 -7 -6 -6 -6 -5 -5
-2 -2 -2 -3 -3 -4 -3 -3 -4 -4 -3 -4 -4 -4 -5 -5 -5 -6 -6 -6 -6 -6 -6 -7 -7 -7 -6 -6 -6 -6 -6 -5 -5 -6 -6 -6 -6 -5 -5 -5 -5 -5 -4
-2 -2 -2 -3 -3 -3 -3 -3 -3 -3 -3 -3 -4 -4 -4 -5 -5 -6 -6 -6 -6 -6 -6 -6 -6 -7 -6 -6 -6 -6 -6 -5 -5 -5 -5 -4 -4 -4 -4 -5 -4 -4 -4
-2 -2 -2 -2 -3 -3 -3 -3 -3 -2 -2 -3 -3 -4 -4 -4 -5 -5 -5 -6 -6 -5 -6 -6 -6 -6 -6 -6 -5 -5 -5 -5 -4 -4 -3 -3 -3 -4 -4 -4 -4 -4 -4
-2 -2 -2 -3 -3 -3 -3 -3 -3 -2 -2 -3 -3 -4 -4 -4 -4 -5 -5 -5 -5 -5 -6 -6 -6 -6 -6 -6 -5 -5 -4 -4 -4 -3 -3 -3 -3 -3 -4 -4 -4 -4 -4